Onweer radar Meer informatie blitzortung!


Regen radar Meer informatie rain snow radar


Bezoek onze andere website:

Template documentation
and downloads

And another site



15 daagse weersverwachting Allschwil (CH)

  • Overzicht
  • Per uur
  • 15 dagen
  • Extra
  • Vergelijk
  • Kaarten
  • Dagkaart
  • Meer »
  • Info
  • Statistieken
  • Directe link
    Temp 6h Neerslag Wind  
 06:10     21:03    Daglengte: 14:53 Morgen
02:00
17°
0.7 mm
2
08:00
15°
18.4 mm
2
14:00
18°
22.7 mm
1
20:00
17°
12.4 mm
2
 06:11     21:02    Daglengte: 14:51 Maandag 02 Aug
02:00
14°
 
2
08:00
14°
 
1
14:00
20°
 
3
20:00
20°
 
3
 06:12     21:01    Daglengte: 14:49 Dinsdag 03 Aug
02:00
14°
 
2
08:00
14°
 
1
14:00
19°
24.9 mm
4
warningclass
20:00
18°
55.6 mm
1
Locatie info
Region: Arlesheim
Latitude: 47.5516°N
Longitude: 7.5381°E
288 masl
Postcode: 4123
Temp/Neerslag /Baro Onweer/Dauwpunt
    Temp Baro 1h Neerslag Dauwpunt Wind UV Bewolking  
 06:10     21:03    Daglengte: 14:53 Morgen
00:00
18°
1010.5 hPa
47%
15.7°
2
Windvlaag: -4.2 m/s
86%
01:00
17°
1010.3 hPa
80%
15.3°
2
Windvlaag: -3.9 m/s
86%
02:00
17°
1010.4 hPa 0.7 mm
80%
15.1°
2
Windvlaag: -3.7 m/s
86%
03:00
16°
1010.5 hPa 1.0 mm
82%
14.6°
3
Windvlaag: -3.3 m/s
86%
04:00
15°
1010.7 hPa 2.5 mm
82%
14.2°
2
Windvlaag: -3.5 m/s
86%
05:00
15°
1010.5 hPa 3.7 mm
82%
13.9°
2
Windvlaag: -0.3 m/s
86%
06:00
15°
1010.7 hPa 3.9 mm
82%
14.0°
2
Windvlaag: 0.9 m/s
86%
07:00
15°
1011.0 hPa 3.7 mm
82%
14.0°
2
Windvlaag: 1.6 m/s
86%
08:00
15°
1011.5 hPa 3.7 mm
82%
14.2°
2
Windvlaag: 2.4 m/s
86%
09:00
15°
1011.8 hPa 3.6 mm
82%
14.1°
1
Windvlaag: 2.4 m/s
84%
10:00
16°
1012.1 hPa 3.5 mm
82%
14.3°
1
Windvlaag: 2.7 m/s
74%
11:00
16°
1012.2 hPa 3.8 mm
82%
14.2°
1
Windvlaag: 3 m/s
79%
12:00
17°
1012.2 hPa 3.8 mm
80%
14.4°
2
Windvlaag: 2.4 m/s
61% warningclass
13:00
18°
1012.0 hPa 3.6 mm
82%
14.3°
1
Windvlaag: 2.1 m/s
69%
14:00
18°
1011.9 hPa 4.4 mm
82%
13.4°
1
Windvlaag: -1.4 m/s
77%
15:00
18°
1012.1 hPa 4.4 mm
82%
11.6°
1
Windvlaag: -1.3 m/s
68%
16:00
19°
1012.1 hPa
82%
12.8°
2
Windvlaag: 0.6 m/s
84%
17:00
19°
1012.1 hPa 4.0 mm
82%
13.0°
3
Windvlaag: 2.9 m/s
80%
18:00
19°
1012.1 hPa 4.0 mm
82%
12.3°
2
Windvlaag: 2.9 m/s
76%
19:00
18°
1012.3 hPa
82%
12.5°
3
Windvlaag: 3 m/s
72% warningclass
20:00
17°
1012.6 hPa
70%
14.3°
2
Windvlaag: 3.2 m/s
63%
21:00
17°
1013.0 hPa
24%
14.6°
2
Windvlaag: 3.6 m/s
50%
22:00
16°
1013.8 hPa
26%
14.6°
2
Windvlaag: 3.6 m/s
13%
23:00
15°
1014.1 hPa
19%
14.1°
2
Windvlaag: 3.9 m/s
33%
 06:11     21:02    Daglengte: 14:51 Maandag 02 Aug
00:00
15°
1014.2 hPa
15%
13.3°
2
Windvlaag: 3.8 m/s
12%
01:00
14°
1014.5 hPa
14%
12.7°
2
Windvlaag: 2.8 m/s
12%
02:00
14°
1014.7 hPa
22%
12.6°
2
Windvlaag: 3.2 m/s
12%
03:00
14°
1014.5 hPa
20%
12.6°
1
Windvlaag: 3.5 m/s
11%
04:00
14°
1014.6 hPa
18%
12.3°
1
Windvlaag: 2.9 m/s
13%
05:00
13°
1014.6 hPa
18%
12.1°
2
Windvlaag: 2.6 m/s
15%
06:00
13°
1014.9 hPa
17%
11.8°
1
Windvlaag: 2.6 m/s
15%
07:00
13°
1015.3 hPa
14%
11.7°
1
Windvlaag: 2 m/s
40%
08:00
14°
1015.6 hPa
14%
12.9°
1
Windvlaag: 2 m/s
25%
09:00
16°
1015.8 hPa
14%
13.4°
1
Windvlaag: 2.6 m/s
15%
10:00
17°
1015.8 hPa
20%
13.7°
1
Windvlaag: 1.3 m/s
15%
11:00
18°
1015.8 hPa
69%
15.0°
2
Windvlaag: 0.7 m/s
41%
12:00
19°
1015.5 hPa
77%
15.1°
2
Windvlaag: 0.5 m/s
12%
13:00
20°
1015.3 hPa
76%
14.8°
3
Windvlaag: 0.2 m/s
16%
14:00
20°
1015.2 hPa
78%
15.6°
3
Windvlaag: 0.5 m/s
17%
15:00
20°
1015.2 hPa
77%
15.5°
3
Windvlaag: 1.6 m/s
18%
16:00
21°
1015.0 hPa
79%
12.9°
3
Windvlaag: 1.6 m/s
8%
17:00
21°
1014.5 hPa
48%
10.7°
3
Windvlaag: 0.9 m/s
10%
18:00
21°
1014.3 hPa
31%
12.7°
3
Windvlaag: 0.8 m/s
3%
19:00
21°
1014.3 hPa
28%
13.3°
3
Windvlaag: 1.4 m/s
24%
20:00
20°
1014.6 hPa
26%
13.4°
3
Windvlaag: 2.7 m/s
15%
21:00
18°
1014.9 hPa
21%
12.9°
1
Windvlaag: 2 m/s
26%
22:00
17°
1015.4 hPa
21%
12.7°
1
Windvlaag: 2.2 m/s
39%
23:00
16°
1015.6 hPa
21%
12.1°
2
Windvlaag: 1.9 m/s
31%
 06:12     21:01    Daglengte: 14:49 Dinsdag 03 Aug
00:00
15°
1015.6 hPa
21%
11.3°
1
Windvlaag: 1.8 m/s
51%
01:00
14°
1015.6 hPa
21%
10.8°
1
Windvlaag: 1.5 m/s
39%
02:00
14°
1015.2 hPa
21%
9.4°
2
Windvlaag: 2.2 m/s
53%
03:00
14°
1014.9 hPa
21%
9.4°
2
Windvlaag: 2.3 m/s
52%
04:00
13°
1014.6 hPa
21%
9.2°
1
Windvlaag: 2.1 m/s
48%
05:00
13°
1014.3 hPa
21%
9.9°
2
Windvlaag: 2.1 m/s
48%
06:00
13°
1014.3 hPa
21%
9.8°
1
Windvlaag: 2 m/s
74%
07:00
13°
1014.2 hPa
21%
9.4°
2
Windvlaag: 2.2 m/s
73%
08:00
14°
1014.2 hPa
21%
9.3°
1
Windvlaag: 2.4 m/s
90%
09:00
16°
1014.0 hPa
21%
10.8°
1
Windvlaag: 2.6 m/s
98%
10:00
18°
1013.8 hPa
21%
12.1°
1
Windvlaag: 3.2 m/s
91%
11:00
19°
1013.6 hPa
21%
12.4°
1
Windvlaag: 1.8 m/s
86%
12:00
20°
1013.7 hPa 9.1 mm
40%
14.5°
3
Windvlaag: 1.1 m/s
89% warningclass
13:00
20°
1013.6 hPa 8.8 mm
100%
14.1°
4
Windvlaag: 3 m/s
95%
14:00
19°
1014.1 hPa 7.0 mm
100%
13.4°
4
Windvlaag: 3.4 m/s
87% warningclass
15:00
20°
1013.8 hPa 9.0 mm
100%
15.0°
3
Windvlaag: 11.6 m/s
90%
16:00
20°
1013.7 hPa 9.0 mm
100%
13.1°
3
Windvlaag: 9.3 m/s
92%
17:00
20°
1013.7 hPa 9.1 mm
100%
13.5°
2
Windvlaag: 8 m/s
65%
18:00
19°
1013.8 hPa 9.4 mm
100%
12.1°
2
Windvlaag: 7.7 m/s
68%
19:00
19°
1013.9 hPa 9.6 mm
99%
12.4°
2
Windvlaag: 7.6 m/s
11%
20:00
18°
1014.3 hPa 9.4 mm
100%
13.2°
1
Windvlaag: 5.5 m/s
41%
21:00
17°
1012.9 hPa 27.5 mm
100%
13.1°
1
Windvlaag: 6.6 m/s
51%
22:00
18°
1013.3 hPa 27.5 mm
100%
13.4°
1
Windvlaag: 6.7 m/s
58%
23:00
16°
1013.1 hPa 27.5 mm
100%
12.6°
3
Windvlaag: 5.3 m/s
69%
Temp/Neerslag /Baro Onweer/Dauwpunt
    Temp Baro Neerslag Dauwpunt Wind Bewolking  
 06:10     21:03    Daglengte: 14:53 Morgen
02:00
17°
1010.4 hPa 0.7 mm 15.1°
2
86%
05:00
15°
1010.5 hPa 7.1 mm 13.9°
2
86%
08:00
15°
1011.5 hPa 11.3 mm 14.2°
2
86%
11:00
16°
1012.2 hPa 10.9 mm 14.2°
1
79%
14:00
18°
1011.9 hPa 11.8 mm 13.4°
1
77%
17:00
19°
1012.1 hPa 8.4 mm 13.0°
3
80%
20:00
17°
1012.6 hPa 4.0 mm 14.3°
2
63%
23:00
15°
1014.1 hPa   14.1°
2
33%
 06:11     21:02    Daglengte: 14:51 Maandag 02 Aug
02:00
14°
1014.7 hPa   12.6°
2
12%
05:00
13°
1014.6 hPa   12.1°
2
15%
08:00
14°
1015.6 hPa   12.9°
1
25%
11:00
18°
1015.8 hPa   15.0°
2
41%
14:00
20°
1015.2 hPa   15.6°
3
17%
17:00
21°
1014.5 hPa   10.7°
3
10%
20:00
20°
1014.6 hPa   13.4°
3
15%
23:00
16°
1015.6 hPa   12.1°
2
31%
 06:12     21:01    Daglengte: 14:49 Dinsdag 03 Aug
02:00
14°
1015.2 hPa   9.4°
2
53%
05:00
13°
1014.3 hPa   9.9°
2
48%
08:00
14°
1014.2 hPa   9.3°
1
90%
11:00
19°
1013.6 hPa   12.4°
1
86%
14:00
19°
1014.1 hPa 24.9 mm 13.4°
4
87% warningclass
17:00
20°
1013.7 hPa 27.1 mm 13.5°
2
65%
20:00
18°
1014.3 hPa 28.5 mm 13.2°
1
41%
23:00
16°
1013.1 hPa 82.4 mm 12.6°
3
69%
 06:13     20:59    Daglengte: 14:46 Woensdag 04 Aug
02:00
15°
1012.8 hPa 82.4 mm 9.6°
2
79%
05:00
14°
1012.8 hPa 31.0 mm 14.1°
1
1%
08:00
14°
1013.2 hPa 35.5 mm 14.3°
1
1%
11:00
16°
1013.7 hPa 39.0 mm 15.1°
1
1%
14:00
15°
1015.6 hPa 40.7 mm 13.7°
5
1%
17:00
17°
1016.0 hPa 41.1 mm 14.6°
5
1%
20:00
15°
1017.1 hPa 41.2 mm 12.6°
3
1%
23:00
12°
1018.8 hPa 41.3 mm 10.8°
2
0%
 06:15     20:58    Daglengte: 14:43 Donderdag 05 Aug
02:00
11°
1018.4 hPa 41.3 mm 9.7°
2
0%
05:00
11°
1017.2 hPa 41.3 mm 8.9°
2
0%
08:00
13°
1016.5 hPa 41.3 mm 10.1°
1
0%
11:00
18°
1014.7 hPa 41.3 mm 11.6°
1
1%
14:00
19°
1013.5 hPa 41.3 mm 12.6°
1
1%
17:00
19°
1011.7 hPa 42.3 mm 14.7°
2
1%
20:00
16°
1011.4 hPa 42.7 mm 13.5°
1
1%
23:00
14°
1011.0 hPa 42.7 mm 13.2°
1
1%
 06:16     20:56    Daglengte: 14:40 Vrijdag 06 Aug
02:00
14°
1010.9 hPa 44.3 mm 12.9°
2
1%
05:00
13°
1010.7 hPa 44.6 mm 11.8°
2
1%
08:00
13°
1011.4 hPa 44.6 mm 12.4°
2
1%
11:00
17°
1011.8 hPa 45.0 mm 13.3°
5
1%
14:00
18°
1012.4 hPa 45.1 mm 10.9°
6
1%
17:00
19°
1011.9 hPa 45.2 mm 12.4°
6
1%
20:00
17°
1012.7 hPa 45.4 mm 12.5°
4
0%
23:00
13°
1014.4 hPa 45.4 mm 10.6°
2
0%
 06:17     20:54    Daglengte: 14:37 Zaterdag 07 Aug
02:00
12°
1014.6 hPa 45.4 mm 9.5°
2
0%
05:00
11°
1014.3 hPa 45.4 mm 9.3°
2
0%
08:00
14°
1013.9 hPa 45.4 mm 10.7°
1
0%
11:00
19°
1012.7 hPa 45.4 mm 12.3°
1
1%
14:00
23°
1011.2 hPa 45.4 mm 13.9°
1
1%
17:00
23°
1010.6 hPa 45.4 mm 16.1°
1
0%
20:00
21°
1010.4 hPa 45.4 mm 17.0°
0
1%
23:00
17°
1011.8 hPa   14.0°
1
0%
 06:19     20:53    Daglengte: 14:34 Zondag 08 Aug
02:00
16°
1012.0 hPa 90.8 mm 12.9°
2
0%
08:00
17°
1013.7 hPa 90.8 mm 14.9°
1
0%
14:00
20°
1017.1 hPa 93.6 mm 17.6°
2
1%
20:00
17°
1019.5 hPa 96.9 mm 15.7°
1
1%
 06:20     20:51    Daglengte: 14:31 Maandag 09 Aug
02:00
15°
1022.0 hPa 99.2 mm 13.8°
2
1%
08:00
15°
1024.2 hPa 99.5 mm 12.7°
1
0%
14:00
21°
1024.2 hPa 99.5 mm 12.9°
5
0%
20:00
18°
1024.7 hPa 99.5 mm 13.8°
2
0%
 06:21     20:50    Daglengte: 14:29 Dinsdag 10 Aug
02:00
13°
1026.7 hPa 99.5 mm 10.6°
1
0%
08:00
14°
1026.2 hPa 99.5 mm 11.0°
1
0%
14:00
22°
1024.2 hPa 99.5 mm 12.5°
2
0%
20:00
20°
1021.1 hPa 0.8 mm 15.2°
1
39%
 06:23     20:48    Daglengte: 14:25 Woensdag 11 Aug
02:00
15°
1021.9 hPa 0.2 mm 12.9°
0
36%
08:00
16°
1021.4 hPa 0.7 mm 13.2°
0
39%
14:00
23°
1019.8 hPa 0.4 mm 13.8°
2
45%
20:00
20°
1020.0 hPa 0.2 mm 15.2°
1
44%
 06:24     20:46    Daglengte: 14:22 Donderdag 12 Aug
02:00
15°
1020.8 hPa 0.7 mm 12.8°
0
39%
08:00
15°
1020.6 hPa 0.4 mm 13.1°
0
43%
14:00
23°
1019.5 hPa 0.5 mm 14.4°
1
44%
20:00
20°
1019.5 hPa 1.2 mm 15.9°
1
37%
 06:25     20:45    Daglengte: 14:20 Vrijdag 13 Aug
02:00
16°
1020.7 hPa 1.2 mm 13.4°
0
28%
08:00
16°
1020.9 hPa 0.8 mm 13.6°
0
34%
14:00
24°
1020.0 hPa 0.7 mm 14.6°
1
42%
20:00
21°
1019.9 hPa 0.7 mm 15.7°
1
40%
 06:26     20:43    Daglengte: 14:17 Zaterdag 14 Aug
02:00
16°
1021.1 hPa 0.2 mm 13.5°
0
29%
08:00
16°
1020.7 hPa 0.1 mm 13.7°
1
39%
14:00
24°
1019.0 hPa 0.3 mm 14.7°
1
37%
20:00
21°
1018.9 hPa 0.4 mm 15.8°
1
38%
 06:28     20:41    Daglengte: 14:13 Zondag 15 Aug
02:00
16°
1019.8 hPa 0.5 mm 13.3°
0
26%
08:00
16°
1019.4 hPa 0.5 mm 13.5°
0
28%
14:00
25°
1018.0 hPa 0.3 mm 14.7°
2
31%
20:00
21°
1018.1 hPa 0.6 mm 15.5°
1
36%
  CAPE Lifted Index Hail Supercell Tornado SRH 3km CL BTM PRES CL TOP PRES Swiss DWD icon SMHI TS
 06:10     21:03    Daglengte: 14:53 Morgen
00:00 19 J/kg 1.2 K 0 % 0 % 0 % 0 m²/s² 0 0 1.2 80
01:00 0 J/kg 1.0 K 0 % 0 % 0 % 0 m²/s² 0 0 1 80
02:00 1 J/kg 1.3 K 0 % 0 % 0 % 0 m²/s² 0 0 1.3 61
03:00 5 J/kg 1.8 K 0 % 0 % 0 % 0 m²/s² 0 0 1.8 61
04:00 40 J/kg 2.0 K 0 % 0 % 0 % 0 m²/s² 0 0 2 61
05:00 33 J/kg 2.5 K 0 % 0 % 0 % 0 m²/s² 0 0 2.53 61
06:00 25 J/kg 2.5 K 0 % 0 % 0 % 0 m²/s² 0 0 2.77 61
07:00 46 J/kg 2.3 K 0 % 0 % 0 % 0 m²/s² 0 0 2.6 61
08:00 84 J/kg 1.8 K 0 % 0 % 0 % 0 m²/s² 0 0 1.8 61
09:00 165 J/kg 0.4 K 0 % 0 % 0 % 0 m²/s² 0 0 0.58 61
10:00 367 J/kg -1.4 K 0 % 0 % 0 % 0 m²/s² 0 0 -0.98 61
11:00 541 J/kg -2.2 K 0 % 0 % 0 % 0 m²/s² 0 0 -1.81 61
12:00 602 J/kg -2.2 K 0 % 0 % 0 % 0 m²/s² 0 0 -2.02 80
13:00 118 J/kg 0.2 K 0 % 0 % 0 % 0 m²/s² 0 0 0.38 80
14:00 1 J/kg 0.6 K 0 % 0 % 0 % 0 m²/s² 0 0 1.17 61
15:00 95 J/kg -0.2 K 0 % 0 % 0 % 0 m²/s² 0 0 0.37 3
16:00 379 J/kg -1.4 K 0 % 0 % 0 % 0 m²/s² 0 0 0.16 3
17:00 734 J/kg -2.7 K 0 % 0 % 0 % 0 m²/s² 0 0 -0.84 80
18:00 968 J/kg -3.5 K 0 % 0 % 0 % 0 m²/s² 0 0 -1.25 80
19:00 1005 J/kg -3.7 K 0 % 0 % 0 % 0 m²/s² 0 0 -1.6 95
20:00 916 J/kg -3.6 K 0 % 0 % 0 % 0 m²/s² 0 0 -1.38 80
21:00 868 J/kg -3.2 K 0 % 0 % 0 % 0 m²/s² 0 0 -1.28 3
22:00 683 J/kg -2.9 K 0 % 0 % 0 % 0 m²/s² 0 0 -1.4 2
23:00 358 J/kg -2.0 K 0 % 0 % 0 % 0 m²/s² 0 0 -0.92 2
 06:11     21:02    Daglengte: 14:51 Maandag 02 Aug
00:00 96 J/kg -1.6 K 0 % 0 % 0 % 0 m²/s² 0 0 -0.82 1
01:00 2 J/kg -1.4 K 0 % 0 % 0 % 0 m²/s² 0 0 -0.71 1
02:00 0 J/kg -1.4 K 0 % 0 % 0 % 0 m²/s² 0 0 -0.47 2
03:00 6 J/kg -1.1 K 0 % 0 % 0 % 0 m²/s² 0 0 -0.02 45
04:00 36 J/kg -0.9 K 0 % 0 % 0 % 0 m²/s² 0 0 0.54 2
05:00 34 J/kg -0.8 K 0 % 0 % 0 % 0 m²/s² 0 0 0.79 2
06:00 3 J/kg -0.3 K 0 % 0 % 0 % 0 m²/s² 0 0 1.35 2
07:00 2 J/kg 0.0 K 0 % 0 % 0 % 0 m²/s² 0 0 1.17 3
08:00 67 J/kg 0.2 K 0 % 0 % 0 % 0 m²/s² 0 0 1.16 2
09:00 183 J/kg 0.2 K 0 % 0 % 0 % 0 m²/s² 0 0 1.1 2
10:00 321 J/kg -0.6 K 0 % 0 % 0 % 0 m²/s² 0 0 0.51 2
11:00 405 J/kg -1.0 K 0 % 0 % 0 % 0 m²/s² 0 0 0.59 3
12:00 428 J/kg -1.2 K 0 % 0 % 0 % 0 m²/s² 0 0 0.75 3
13:00 328 J/kg -0.9 K 0 % 0 % 0 % 0 m²/s² 0 0 1.08 2
14:00 347 J/kg -1.0 K 0 % 0 % 0 % 0 m²/s² 0 0 0.98 2
15:00 378 J/kg -1.5 K 0 % 0 % 0 % 0 m²/s² 0 0 0.54 2
16:00 385 J/kg -1.6 K 0 % 0 % 0 % 0 m²/s² 0 0 0.44 2
17:00 387 J/kg -1.6 K 0 % 0 % 0 % 0 m²/s² 0 0 0.71 2
18:00 618 J/kg -2.3 K 0 % 0 % 0 % 0 m²/s² 0 0 -0.26 2
19:00 641 J/kg -2.6 K 0 % 0 % 0 % 0 m²/s² 0 0 -0.35 3
20:00 709 J/kg -2.7 K 0 % 0 % 0 % 0 m²/s² 0 0 -0.51 3
21:00 655 J/kg -2.6 K 0 % 0 % 0 % 0 m²/s² 0 0 -0.14 3
22:00 578 J/kg -2.5 K 0 % 0 % 0 % 0 m²/s² 0 0 -0.19 3
23:00 432 J/kg -2.0 K 0 % 0 % 0 % 0 m²/s² 0 0 0.19 3
 06:12     21:01    Daglengte: 14:49 Dinsdag 03 Aug
00:00 316 J/kg -1.3 K 0 % 0 % 0 % 0 m²/s² 0 0 1.01 3
01:00 188 J/kg -1.0 K 0 % 0 % 0 % 0 m²/s² 0 0 1.4 1
02:00 96 J/kg -0.9 K 0 % 0 % 0 % 0 m²/s² 0 0 1.62 0
03:00 126 J/kg -1.2 K 0 % 0 % 0 % 0 m²/s² 0 0 1.56 0
04:00 54 J/kg -1.2 K 0 % 0 % 0 % 0 m²/s² 0 0 1.41 1
05:00 18 J/kg -1.2 K 0 % 0 % 0 % 0 m²/s² 0 0 1.26 2
06:00 0 J/kg -1.3 K 0 % 0 % 0 % 0 m²/s² 0 0 0.62 3
07:00 0 J/kg -1.3 K 0 % 0 % 0 % 0 m²/s² 0 0 0.2 3
08:00 42 J/kg -1.1 K 0 % 0 % 0 % 0 m²/s² 0 0 0.07 3
09:00 173 J/kg -1.5 K 0 % 0 % 0 % 0 m²/s² 0 0 -0.66 3
10:00 210 J/kg -1.2 K 0 % 0 % 0 % 0 m²/s² 0 0 0.09 3
11:00 540 J/kg -2.4 K 0 % 0 % 0 % 0 m²/s² 0 0 -0.72 3
12:00 764 J/kg -3.7 K 0 % 0 % 0 % 0 m²/s² 0 0 -3.4 3
13:00 788 J/kg -3.9 K 0 % 0 % 0 % 0 m²/s² 0 0 -1.92 3
14:00 745 J/kg -3.6 K 0 % 0 % 0 % 0 m²/s² 0 0 -2.64 95
15:00 539 J/kg -2.6 K 0 % 0 % 0 % 0 m²/s² 0 0 -1.43 80
16:00 460 J/kg -2.0 K 0 % 0 % 0 % 0 m²/s² 0 0 -0.14 80
17:00 526 J/kg -2.2 K 0 % 0 % 0 % 0 m²/s² 0 0 0.35 80
18:00 346 J/kg -0.7 K 0 % 0 % 0 % 0 m²/s² 0 0 1.55 80
19:00 245 J/kg 0.3 K 0 % 0 % 0 % 0 m²/s² 0 0 2.76 80
20:00 239 J/kg 0.6 K 0 % 0 % 0 % 0 m²/s² 0 0 3.3 80
21:00 163 J/kg 1.9 K 0 % 0 % 0 % 0 m²/s² 0 0 4.93
22:00 90 J/kg 3.5 K 0 % 0 % 0 % 0 m²/s² 0 0 6.71
23:00 11 J/kg 4.7 K 0 % 0 % 0 % 0 m²/s² 0 0 8.18
Temp Baro Wind Neerslag
  EWN Forecast EWN WRFDA DWD ICON FMI HIRLAM MET Norway GFS
 06:10     21:03    Daglengte: 14:53 Morgen
02:00 16.7° 1010.4 hPa 2.3 m/s 0.7 mm 16.1° 1009.2 hPa 3.8 m/s 2.6 mm 15.8° 1011.1 hPa 1.0 m/s -0.1 mm 16.6° 1009.9 hPa 2.1 m/s 0.0 mm 14.9° 1010.8 hPa 2.0 m/s
05:00 15.0° 1010.5 hPa 2.1 m/s 7.1 mm 14.3° 1009.0 hPa 2.6 m/s 18.7 mm 15.1° 1010.6 hPa 1.1 m/s 3.3 mm 14.7° 1009.9 hPa 3.2 m/s 0.0 mm 14.4° 1011.2 hPa 1.6 m/s
08:00 14.8° 1011.5 hPa 1.6 m/s 11.3 mm 14.4° 1009.4 hPa 2.8 m/s 44.0 mm 14.9° 1012.0 hPa 0.9 m/s 4.1 mm 14.3° 1011.2 hPa 1.9 m/s 0.0 mm 14.5° 1011.5 hPa 0.9 m/s
11:00 16.3° 1012.2 hPa 1.1 m/s 10.9 mm 18.5° 1010.1 hPa 2.1 m/s 45.8 mm 15.8° 1013.0 hPa 1.3 m/s 2.4 mm 15.8° 1012.0 hPa 0.5 m/s 0.0 mm 15.8° 1012.1 hPa 2.2 m/s
14:00 18.1° 1011.9 hPa 1.3 m/s 11.8 mm 15.0° 1010.8 hPa 1.2 m/s 50.8 mm 17.4° 1013.1 hPa 2.3 m/s 0.8 mm 19.3° 1011.2 hPa 1.0 m/s 0.0 mm 14.9° 1012.9 hPa 2.5 m/s
17:00 18.7° 1012.1 hPa 2.5 m/s 8.4 mm 20.0° 1010.1 hPa 2.6 m/s 57.1 mm 18.4° 1013.0 hPa 2.7 m/s 0.5 mm 20.3° 1010.7 hPa 2.8 m/s 0.0 mm 15.8° 1013.5 hPa 1.3 m/s
20:00 17.5° 1012.6 hPa 2.4 m/s 4.0 mm 19.3° 1010.5 hPa 1.8 m/s 57.7 mm 16.9° 1013.6 hPa 1.0 m/s 1.7 mm 17.3° 1011.4 hPa 2.7 m/s 0.0 mm 15.7° 1013.7 hPa 1.5 m/s
23:00 15.3° 1014.1 hPa 2.4 m/s 0.0 mm 16.3° 1012.4 hPa 4.4 m/s 59.6 mm 15.2° 1014.8 hPa 1.0 m/s 0.0 mm 14.7° 1013.5 hPa 2.1 m/s 0.0 mm 12.6° 1015.3 hPa 1.7 m/s
 06:11     21:02    Daglengte: 14:51 Maandag 02 Aug
02:00 13.7° 1014.7 hPa 1.9 m/s 0.0 mm 14.9° 1013.2 hPa 2.8 m/s 60.7 mm 12.5° 1015.6 hPa 1.1 m/s 0.0 mm 13.7° 1013.5 hPa 2.0 m/s 0.0 mm 11.8° 1015.4 hPa 1.5 m/s
05:00 13.1° 1014.6 hPa 1.5 m/s 0.0 mm 14.9° 1013.6 hPa 1.9 m/s 62.8 mm 11.9° 1015.6 hPa 1.5 m/s 0.0 mm 13.1° 1014.1 hPa 1.8 m/s 0.0 mm 11.2° 1015.9 hPa 1.4 m/s
08:00 14.3° 1015.6 hPa 1.3 m/s 0.0 mm 15.6° 1014.8 hPa 2.1 m/s 64.5 mm 13.7° 1016.4 hPa 1.2 m/s 0.0 mm 14.3° 1014.8 hPa 1.7 m/s 0.0 mm 13.6° 1016.7 hPa 1.2 m/s
11:00 18.0° 1015.8 hPa 2.1 m/s 0.0 mm 19.1° 1015.2 hPa 2.2 m/s 66.1 mm 18.1° 1016.5 hPa 2.1 m/s 0.0 mm 17.8° 1015.2 hPa 2.4 m/s 0.0 mm 18.2° 1016.2 hPa 0.7 m/s
14:00 19.7° 1015.2 hPa 2.8 m/s 0.0 mm 21.3° 1014.5 hPa 2.7 m/s 67.3 mm 20.3° 1015.8 hPa 2.8 m/s 0.1 mm 19.5° 1015.2 hPa 2.8 m/s 0.0 mm 19.8° 1015.6 hPa 2.4 m/s
17:00 21.2° 1014.5 hPa 3.4 m/s 0.0 mm 22.7° 1013.7 hPa 4.2 m/s 69.6 mm 21.1° 1015.4 hPa 3.4 m/s 0.1 mm 20.8° 1015.3 hPa 2.8 m/s
20:00 19.6° 1014.6 hPa 2.6 m/s 0.0 mm 20.6° 1014.0 hPa 2.6 m/s 69.9 mm 19.4° 1014.9 hPa 2.4 m/s 0.0 mm 17.7° 1015.6 hPa 1.9 m/s
23:00 15.7° 1015.6 hPa 1.6 m/s 0.0 mm 16.5° 1015.0 hPa 2.6 m/s 69.9 mm 15.7° 1016.1 hPa 1.1 m/s 0.0 mm 14.1° 1017.2 hPa 1.9 m/s
 06:12     21:01    Daglengte: 14:49 Dinsdag 03 Aug
02:00 13.9° 1015.2 hPa 1.6 m/s 0.0 mm 17.1° 1014.7 hPa 2.9 m/s 69.9 mm 12.8° 1016.1 hPa 0.9 m/s 0.0 mm 13.1° 1016.5 hPa 1.9 m/s
05:00 13.0° 1014.3 hPa 1.6 m/s 0.0 mm 15.1° 1013.5 hPa 2.1 m/s 69.9 mm 11.5° 1015.4 hPa 0.8 m/s 0.0 mm 12.5° 1015.4 hPa 2.2 m/s
08:00 14.2° 1014.2 hPa 1.4 m/s 0.0 mm 17.7° 1012.9 hPa 2.9 m/s 69.9 mm 13.7° 1015.1 hPa 0.4 m/s 0.0 mm 14.7° 1015.2 hPa 2.0 m/s
11:00 19.3° 1013.6 hPa 1.1 m/s 0.0 mm 20.6° 1012.0 hPa 3.4 m/s 70.7 mm 18.8° 1014.7 hPa 1.0 m/s 0.0 mm 20.3° 1013.9 hPa 1.5 m/s
14:00 18.9° 1014.1 hPa 3.6 m/s 24.9 mm 20.4° 1012.3 hPa 5.8 m/s 75.5 mm 19.4° 1014.4 hPa 3.1 m/s 2.0 mm 15.8° 1016.0 hPa 2.1 m/s
17:00 19.5° 1013.7 hPa 2.2 m/s 27.1 mm 21.0° 1012.1 hPa 4.5 m/s 79.3 mm 19.1° 1014.1 hPa 1.6 m/s 1.0 mm 20.3° 1014.3 hPa 3.6 m/s
20:00 18.2° 1014.3 hPa 1.0 m/s 28.5 mm 19.7° 1012.4 hPa 2.6 m/s 82.1 mm 17.8° 1014.8 hPa 0.6 m/s 1.6 mm 17.4° 1014.5 hPa 1.0 m/s
23:00 16.4° 1013.1 hPa 2.7 m/s 82.4 mm 16.4° 1013.1 hPa 2.7 m/s 82.4 mm 14.4° 1015.3 hPa 1.3 m/s
 06:13     20:59    Daglengte: 14:46 Woensdag 04 Aug
02:00 14.8° 1012.8 hPa 1.5 m/s 82.4 mm 14.8° 1012.8 hPa 1.5 m/s 82.4 mm 13.8° 1014.1 hPa 1.3 m/s
05:00 14.3° 1012.8 hPa 0.7 m/s 31.0 mm 14.3° 1012.8 hPa 0.7 m/s 31.0 mm
08:00 14.4° 1013.2 hPa 0.7 m/s 35.5 mm 14.4° 1013.2 hPa 0.7 m/s 35.5 mm
11:00 15.6° 1013.7 hPa 0.8 m/s 39.0 mm 15.6° 1013.7 hPa 0.8 m/s 39.0 mm
14:00 15.0° 1015.6 hPa 5.4 m/s 40.7 mm 15.0° 1015.6 hPa 5.4 m/s 40.7 mm
17:00 17.5° 1016.0 hPa 5.0 m/s 41.1 mm 17.5° 1016.0 hPa 5.0 m/s 41.1 mm
20:00 15.3° 1017.1 hPa 3.4 m/s 41.2 mm 15.3° 1017.1 hPa 3.4 m/s 41.2 mm
23:00 12.0° 1018.8 hPa 1.8 m/s 41.3 mm 12.0° 1018.8 hPa 1.8 m/s 41.3 mm
 06:15     20:58    Daglengte: 14:43 Donderdag 05 Aug
02:00 11.1° 1018.4 hPa 1.7 m/s 41.3 mm 11.1° 1018.4 hPa 1.7 m/s 41.3 mm
05:00 10.7° 1017.2 hPa 1.7 m/s 41.3 mm 10.7° 1017.2 hPa 1.7 m/s 41.3 mm
08:00 12.9° 1016.5 hPa 1.1 m/s 41.3 mm 12.9° 1016.5 hPa 1.1 m/s 41.3 mm
11:00 17.7° 1014.7 hPa 0.8 m/s 41.3 mm 17.7° 1014.7 hPa 0.9 m/s 41.3 mm
14:00 18.5° 1013.5 hPa 1.3 m/s 41.3 mm 18.5° 1013.5 hPa 1.3 m/s 41.3 mm
17:00 19.0° 1011.7 hPa 1.7 m/s 42.3 mm 19.0° 1011.7 hPa 1.7 m/s 42.3 mm
20:00 15.5° 1011.4 hPa 1.1 m/s 42.7 mm 15.5° 1011.4 hPa 1.1 m/s 42.7 mm
23:00 14.4° 1011.0 hPa 1.2 m/s 42.7 mm 14.4° 1011.0 hPa 1.2 m/s 42.7 mm
 06:16     20:56    Daglengte: 14:40 Vrijdag 06 Aug
02:00 13.7° 1010.9 hPa 1.8 m/s 44.3 mm 13.7° 1010.9 hPa 1.8 m/s 44.3 mm
05:00 12.8° 1010.7 hPa 1.9 m/s 44.6 mm 12.8° 1010.7 hPa 1.9 m/s 44.6 mm
08:00 13.3° 1011.4 hPa 1.8 m/s 44.6 mm 13.3° 1011.4 hPa 1.8 m/s 44.6 mm
11:00 17.1° 1011.8 hPa 5.4 m/s 45.0 mm 17.1° 1011.8 hPa 5.4 m/s 45.0 mm
14:00 18.2° 1012.4 hPa 6.1 m/s 45.1 mm 18.2° 1012.4 hPa 6.1 m/s 45.1 mm
17:00 19.5° 1011.9 hPa 5.7 m/s 45.2 mm 19.5° 1011.9 hPa 5.7 m/s 45.2 mm
20:00 17.1° 1012.7 hPa 3.5 m/s 45.4 mm 17.1° 1012.7 hPa 3.5 m/s 45.4 mm
23:00 13.3° 1014.4 hPa 2.1 m/s 45.4 mm 13.3° 1014.4 hPa 2.1 m/s 45.4 mm
 06:17     20:54    Daglengte: 14:37 Zaterdag 07 Aug
02:00 12.3° 1014.6 hPa 2.0 m/s 45.4 mm 12.3° 1014.6 hPa 2.0 m/s 45.4 mm
05:00 11.4° 1014.3 hPa 1.7 m/s 45.4 mm 11.4° 1014.3 hPa 1.7 m/s 45.4 mm
08:00 13.9° 1013.9 hPa 1.4 m/s 45.4 mm 13.9° 1013.9 hPa 1.4 m/s 45.4 mm
11:00 19.5° 1012.7 hPa 0.9 m/s 45.4 mm 19.5° 1012.7 hPa 0.9 m/s 45.4 mm
14:00 22.8° 1011.2 hPa 1.3 m/s 45.4 mm 22.8° 1011.2 hPa 1.3 m/s 45.4 mm
17:00 23.5° 1010.6 hPa 1.0 m/s 45.4 mm 23.5° 1010.6 hPa 1.0 m/s 45.4 mm
20:00 20.7° 1010.4 hPa 0.4 m/s 45.4 mm 20.7° 1010.4 hPa 0.4 m/s 45.4 mm
23:00 16.9° 1011.8 hPa 1.3 m/s 45.4 mm 16.9° 1011.8 hPa 1.3 m/s 45.4 mm
 06:19     20:53    Daglengte: 14:34 Zondag 08 Aug
02:00 15.8° 1012.0 hPa 1.6 m/s 45.4 mm 15.8° 1012.0 hPa 1.6 m/s 45.4 mm
08:00 17.4° 1013.7 hPa 1.5 m/s 45.4 mm 17.4° 1013.7 hPa 1.5 m/s 45.4 mm
14:00 19.8° 1017.1 hPa 2.4 m/s 47.2 mm 19.8° 1017.1 hPa 2.4 m/s 47.2 mm
20:00 17.0° 1019.5 hPa 1.4 m/s 48.9 mm 17.0° 1019.5 hPa 1.4 m/s 48.9 mm
 06:20     20:51    Daglengte: 14:31 Maandag 09 Aug
02:00 15.5° 1022.0 hPa 1.6 m/s 49.6 mm 15.5° 1022.0 hPa 1.6 m/s 49.6 mm
08:00 14.5° 1024.2 hPa 1.4 m/s 49.7 mm 14.5° 1024.2 hPa 1.4 m/s 49.7 mm
14:00 21.2° 1024.2 hPa 4.6 m/s 49.8 mm 21.2° 1024.2 hPa 4.6 m/s 49.8 mm
20:00 18.0° 1024.7 hPa 2.5 m/s 49.8 mm 18.0° 1024.7 hPa 2.5 m/s 49.8 mm
 06:21     20:50    Daglengte: 14:29 Dinsdag 10 Aug
02:00 12.7° 1026.7 hPa 1.2 m/s 49.8 mm 12.7° 1026.7 hPa 1.2 m/s 49.8 mm
08:00 13.8° 1026.2 hPa 0.9 m/s 49.8 mm 13.8° 1026.2 hPa 0.9 m/s 49.8 mm
14:00 21.6° 1024.2 hPa 2.4 m/s 49.8 mm 21.6° 1024.2 hPa 2.4 m/s 49.8 mm
20:00 20.3° 1021.1 hPa 1.1 m/s 0.8 mm
 06:23     20:48    Daglengte: 14:25 Woensdag 11 Aug
02:00 15.2° 1021.9 hPa 0.3 m/s 0.2 mm
08:00 15.7° 1021.4 hPa 0.4 m/s 0.7 mm
14:00 23.3° 1019.8 hPa 1.5 m/s 0.4 mm
20:00 19.9° 1020.0 hPa 1.2 m/s 0.2 mm
 06:24     20:46    Daglengte: 14:22 Donderdag 12 Aug
02:00 15.1° 1020.8 hPa 0.1 m/s 0.7 mm
08:00 15.4° 1020.6 hPa 0.2 m/s 0.4 mm
14:00 23.3° 1019.5 hPa 1.4 m/s 0.5 mm
20:00 20.4° 1019.5 hPa 1.1 m/s 1.2 mm
 06:25     20:45    Daglengte: 14:20 Vrijdag 13 Aug
02:00 15.6° 1020.7 hPa 0.3 m/s 1.2 mm
08:00 15.7° 1020.9 hPa 0.4 m/s 0.8 mm
14:00 24.1° 1020.0 hPa 1.4 m/s 0.7 mm
20:00 20.8° 1019.9 hPa 1.0 m/s 0.7 mm
 06:26     20:43    Daglengte: 14:17 Zaterdag 14 Aug
02:00 15.9° 1021.1 hPa 0.3 m/s 0.2 mm
08:00 16.1° 1020.7 hPa 0.5 m/s 0.1 mm
14:00 24.2° 1019.0 hPa 1.4 m/s 0.3 mm
20:00 20.7° 1018.9 hPa 0.9 m/s 0.4 mm
 06:28     20:41    Daglengte: 14:13 Zondag 15 Aug
02:00 15.9° 1019.8 hPa 0.2 m/s 0.5 mm
08:00 16.2° 1019.4 hPa 0.5 m/s 0.5 mm
14:00 24.6° 1018.0 hPa 1.6 m/s 0.3 mm
20:00 20.8° 1018.1 hPa 1.0 m/s 0.6 mm
FMI Hirlam - 7.5 km EWN WRFDA - 12 km DWD ICON - 7 km GFS - 25 km Basiskaart






























































Updatetijd (Europe/Amsterdam) Resolutie Lengte Stap
FMI Hirlam 19:00, 01:00, 07:00, 13:00 7.5 km 49h 1h
EWN WRFDA 22:15, 04:15, 10:15, 16:15 12 km 73h 1h
DWD ICON 23:45, 05:45, 11:45, 17:45 7 km 75h 1h
GFS 20:15, 02:15, 08:15, 14:15 25 km 237h 3h
30+ mm
25-30 mm
20-25 mm
15-